[[{"header":{"parameterUnit":"m.s-1","parameterCategory":1,"la1":30.2991,"la2":30.254,"lo1":-89.0895,"lo2":-89.0444,"dy":0.0017,"dx":0.0017,"nx":28,"ny":28,"refTime":"2024-02-01T03:00:00:Z","depth":0,"parameterNumber":2,"parameterNumberName":"U-component_of_WINDS"},"data":[0,0,0,0,0,0,0,0,0,0,0,0,0,0,0,0,0,0,0,0,0,0,0,0,0,0,0,0,0,0,0,0,0,0,0,0,0,0,0,0,0,0,0,0,0,0,0,0,0,0,0,0,0,0,0,0,0,0,-0.3131,-0.3132,0,-0.3198,-0.3198,-0.3199,-0.3224,-0.3224,-0.3224,-0.3223,-0.3298,-0.33,-0.3302,0,0,0,0,0,0,0,0,0,0,0,0,0,-0.303,-0.3032,-0.3131,-0.3132,-0.3133,-0.3197,-0.3198,-0.3199,-0.3224,-0.3224,-0.3224,-0.3223,-0.3297,-0.3299,-0.3302,0,0,0,0,0,0,0,0,0,0,0,0,0,-0.3083,-0.3032,-0.3131,-0.3153,-0.3155,-0.3197,-0.3198,-0.32,-0.3224,-0.3224,-0.3223,-0.3223,-0.3296,-0.3299,-0.3302,-0.3329,0,0,-0.3312,-0.3314,0,0,0,0,0,0,0,0,-0.308,-0.3087,-0.3149,-0.3151,-0.3154,-0.3202,-0.319,-0.3243,-0.3224,-0.3198,-0.3223,-0.3223,-0.3266,-0.3272,-0.3286,-0.3333,-0.3336,-0.3313,-0.3315,-0.3316,-0.3317,0,0,0,0,0,0,0,-0.3076,-0.3084,-0.3157,-0.3149,-0.3153,-0.3161,-0.3168,-0.32,-0.3234,-0.32,-0.3202,-0.321,-0.3268,-0.3282,-0.3288,-0.3337,-0.3313,-0.3316,-0.3318,-0.3319,-0.341,-0.341,0,0,0,0,0,0,-0.3068,-0.3081,-0.3155,-0.3159,-0.3115,-0.3163,-0.3171,-0.3187,-0.3233,-0.324,-0.321,-0.321,-0.3277,-0.3284,-0.329,-0.3325,-0.3316,-0.3319,-0.3321,-0.3409,-0.341,-0.341,0,0,0,0,0,0,-0.3066,-0.3075,-0.3153,-0.3121,-0.3131,-0.3165,-0.3183,-0.3189,-0.3203,-0.324,-0.3247,-0.3218,-0.3277,-0.3286,-0.3319,-0.3327,-0.3321,-0.3324,-0.3409,-0.3409,-0.341,-0.3394,0,0,0,0,0,0,-0.3063,-0.3074,-0.3083,-0.3121,-0.3133,-0.3179,-0.3184,-0.319,-0.3208,-0.3209,-0.325,-0.3256,-0.3277,-0.3314,-0.3322,-0.3332,-0.3326,-0.3408,-0.3409,-0.341,-0.3394,-0.3394,-0.3394,0,0,0,0,0,-0.3059,-0.3077,-0.3084,-0.3092,-0.3145,-0.3179,-0.3186,-0.3209,-0.3208,-0.3219,-0.3243,-0.3255,-0.3325,-0.3317,-0.3327,-0.3337,-0.3408,-0.3409,-0.341,-0.3393,-0.3394,-0.3394,0,0,0,0,0,0,-0.3043,-0.3083,-0.309,-0.312,-0.3146,-0.3183,-0.3197,-0.3208,-0.3236,-0.3236,-0.3264,-0.3273,-0.3305,-0.3325,-0.3315,-0.3366,-0.3367,-0.337,-0.3352,-0.3352,-0.3352,-0.3347,-0.3329,0,0,0,0,0,-0.3042,-0.3064,-0.3099,-0.3123,-0.3135,-0.3164,-0.318,-0.3194,-0.3223,-0.3234,-0.3261,-0.3289,-0.3318,-0.3336,-0.3364,-0.3396,-0.3406,-0.3408,-0.3408,-0.3408,-0.3411,-0.3429,-0.3431,-0.3414,-0.3414,-0.3414,0,0,-0.3042,-0.3067,-0.308,-0.312,-0.3141,-0.3165,-0.3173,-0.3198,-0.3217,-0.3239,-0.3271,-0.3291,-0.3325,-0.3358,-0.3374,-0.3375,-0.3417,-0.341,-0.3409,-0.3412,-0.343,-0.3432,-0.3433,-0.3414,-0.3414,-0.3414,0,0,-0.3054,-0.3075,-0.3096,-0.3117,-0.3148,-0.3167,-0.3172,-0.3208,-0.3221,-0.3254,-0.327,-0.3294,-0.3342,-0.3365,-0.3383,-0.3402,-0.3415,-0.3411,-0.3412,-0.3429,-0.343,-0.3432,-0.3439,-0.3441,-0.3413,-0.3413,-0.3413,0,-0.3051,-0.3086,-0.3106,-0.313,-0.3148,-0.3166,-0.3188,-0.3208,-0.3248,-0.3261,-0.3262,-0.3322,-0.3346,-0.3384,-0.3388,-0.3403,-0.341,-0.3407,-0.3428,-0.343,-0.3431,-0.3438,-0.3441,-0.3413,-0.3413,-0.3413,-0.3413,0,-0.308,-0.3104,-0.3118,-0.3153,-0.3172,-0.3196,-0.3221,-0.3238,-0.3251,-0.327,-0.3303,-0.3332,-0.3366,-0.3376,-0.339,-0.3416,-0.3416,-0.3422,-0.3425,-0.3432,-0.3439,-0.3442,-0.3412,-0.3412,-0.3412,-0.3412,0,0,-0.3085,-0.3129,-0.3134,-0.315,-0.3185,-0.3205,-0.323,-0.3261,-0.3275,-0.3302,-0.3324,-0.3363,-0.3368,-0.3389,-0.3405,-0.3421,-0.3434,-0.3425,-0.3426,-0.3425,-0.3464,-0.346,-0.3462,-0.3441,-0.3442,-0.3443,-0.3461,0,-0.3101,-0.3143,-0.3162,-0.3196,-0.3219,-0.3236,-0.3257,-0.3282,-0.33,-0.3323,-0.3345,-0.3372,-0.3377,-0.3389,-0.3405,-0.3429,-0.3442,-0.3428,-0.3463,-0.3464,-0.3454,-0.3466,-0.3461,-0.3478,-0.3464,-0.3465,-0.3465,0,-0.3127,-0.3151,-0.3186,-0.3218,-0.3228,-0.3247,-0.3276,-0.3298,-0.3327,-0.3339,-0.3361,-0.3376,-0.3403,-0.3403,-0.3441,-0.3431,-0.3447,-0.3461,-0.3462,-0.3467,-0.3465,-0.3471,-0.3484,-0.3486,-0.347,-0.3469,-0.3469,0,-0.3126,-0.3168,-0.3194,-0.3207,-0.3245,-0.3258,-0.3274,-0.3302,-0.3319,-0.3346,-0.3358,-0.3388,-0.3404,-0.3428,-0.3451,-0.3449,-0.3488,-0.3489,-0.35,-0.3499,-0.3508,-0.3507,-0.3523,-0.3517,-0.3517,-0.3517,-0.3517,0,-0.3143,-0.3165,-0.3194,-0.3211,-0.3235,-0.3257,-0.3281,-0.3299,-0.3324,-0.3345,-0.3362,-0.3382,-0.3412,-0.3436,-0.3454,-0.3483,-0.3491,-0.3503,-0.3507,-0.3501,-0.35,-0.3512,-0.3512,-0.3518,-0.3518,-0.3518,-0.3518,0,-0.3147,-0.3168,-0.3198,-0.323,-0.3239,-0.3255,-0.3284,-0.3301,-0.3319,-0.3346,-0.3353,-0.3383,-0.3412,-0.3437,-0.3476,-0.3489,-0.3519,-0.3525,-0.3508,-0.3511,-0.352,-0.3519,-0.3545,-0.355,-0.354,-0.354,-0.354,0,-0.3157,-0.3173,-0.3206,-0.322,-0.3236,-0.3259,-0.3276,-0.3298,-0.3315,-0.3348,-0.3362,-0.3391,-0.3416,-0.3462,-0.3488,-0.3518,-0.3525,-0.3532,-0.353,-0.3522,-0.3525,-0.3524,-0.3526,-0.3532,-0.3532,-0.3532,-0.3532,0,-0.3172,-0.3181,-0.3203,-0.3229,-0.3248,-0.327,-0.3293,-0.3304,-0.3331,-0.3349,-0.3378,-0.3397,-0.3435,-0.3465,-0.3497,-0.3516,-0.3529,-0.3532,-0.3536,-0.353,-0.352,-0.3526,-0.3508,-0.3532,-0.3532,-0.3532,-0.3532,-0.3532,-0.3179,-0.3194,-0.3219,-0.3243,-0.3262,-0.3282,-0.33,-0.3319,-0.3342,-0.3374,-0.3386,-0.3415,-0.3443,-0.3488,-0.3506,-0.3531,-0.3533,-0.3539,-0.354,-0.3541,-0.354,-0.3515,-0.3537,-0.3537,-0.3537,-0.3537,-0.3537,0,-0.3195,-0.3211,-0.3233,-0.3263,-0.3282,-0.329,-0.3315,-0.3331,-0.3356,-0.338,-0.3403,-0.3436,-0.3464,-0.3492,-0.3522,-0.3536,-0.3542,-0.3543,-0.3542,-0.3547,-0.3537,-0.353,-0.3537,-0.3537,-0.3537,-0.3537,-0.3537,-0.3537,-0.3205,-0.323,-0.3242,-0.3277,-0.3294,-0.3321,-0.3334,-0.3354,-0.3373,-0.3407,-0.343,-0.3447,-0.3473,-0.3505,-0.3531,-0.3539,-0.3549,-0.3548,-0.3557,-0.3548,-0.3547,-0.3547,-0.3541,-0.355,-0.355,-0.3565,-0.3566,-0.3566]},{"header":{"parameterUnit":"m.s-1","parameterCategory":1,"la1":30.2991,"la2":30.254,"lo1":-89.0895,"lo2":-89.0444,"dy":0.0017,"dx":0.0017,"nx":28,"ny":28,"refTime":"2024-02-01T03:00:00:Z","depth":0,"parameterNumber":3,"parameterNumberName":"V-component_of_WINDS"},"data":[0,0,0,0,0,0,0,0,0,0,0,0,0,0,0,0,0,0,0,0,0,0,0,0,0,0,0,0,0,0,0,0,0,0,0,0,0,0,0,0,0,0,0,0,0,0,0,0,0,0,0,0,0,0,0,0,0,0,-0.2326,-0.2325,0,-0.2263,-0.2262,-0.2261,-0.224,-0.224,-0.224,-0.2241,-0.2173,-0.2171,-0.2169,0,0,0,0,0,0,0,0,0,0,0,0,0,-0.2425,-0.2424,-0.2326,-0.2325,-0.2325,-0.2263,-0.2262,-0.2261,-0.224,-0.224,-0.224,-0.2241,-0.2174,-0.2171,-0.2169,0,0,0,0,0,0,0,0,0,0,0,0,0,-0.2374,-0.2423,-0.2326,-0.2307,-0.2304,-0.2263,-0.2262,-0.2261,-0.224,-0.224,-0.2241,-0.2241,-0.2174,-0.2171,-0.2168,-0.2141,0,0,-0.2159,-0.2158,0,0,0,0,0,0,0,0,-0.2377,-0.237,-0.231,-0.2308,-0.2305,-0.226,-0.2272,-0.2221,-0.224,-0.2264,-0.2241,-0.2241,-0.2201,-0.2196,-0.2183,-0.2138,-0.2135,-0.2159,-0.2157,-0.2156,-0.2155,0,0,0,0,0,0,0,-0.2381,-0.2373,-0.2301,-0.2309,-0.2306,-0.23,-0.2293,-0.2262,-0.2231,-0.2262,-0.226,-0.2253,-0.22,-0.2186,-0.2181,-0.2134,-0.2159,-0.2156,-0.2154,-0.2153,-0.2064,-0.2064,0,0,0,0,0,0,-0.2388,-0.2376,-0.2303,-0.2299,-0.2343,-0.2298,-0.229,-0.2274,-0.2231,-0.2225,-0.2253,-0.2253,-0.2191,-0.2185,-0.2179,-0.2145,-0.2156,-0.2153,-0.2151,-0.2065,-0.2064,-0.2064,0,0,0,0,0,0,-0.239,-0.2382,-0.2306,-0.2337,-0.2327,-0.2296,-0.2278,-0.2272,-0.2259,-0.2225,-0.2219,-0.2245,-0.2191,-0.2183,-0.2151,-0.2142,-0.2151,-0.2148,-0.2065,-0.2065,-0.2064,-0.2076,0,0,0,0,0,0,-0.2393,-0.2383,-0.2373,-0.2337,-0.2325,-0.228,-0.2277,-0.2271,-0.2254,-0.2253,-0.2216,-0.221,-0.2191,-0.2156,-0.2148,-0.2138,-0.2146,-0.2066,-0.2065,-0.2064,-0.2076,-0.2076,-0.2075,0,0,0,0,0,-0.2397,-0.2378,-0.2372,-0.2363,-0.2313,-0.2279,-0.2272,-0.2252,-0.2253,-0.2242,-0.2221,-0.2211,-0.2144,-0.2153,-0.2144,-0.2133,-0.2066,-0.2065,-0.2064,-0.2076,-0.2076,-0.2075,0,0,0,0,0,0,-0.2412,-0.2373,-0.2366,-0.2335,-0.2311,-0.2276,-0.2261,-0.2252,-0.2226,-0.2226,-0.2201,-0.2192,-0.2162,-0.2144,-0.2154,-0.2104,-0.2105,-0.2102,-0.2117,-0.2116,-0.2116,-0.2121,-0.2144,0,0,0,0,0,-0.2412,-0.2389,-0.2356,-0.2332,-0.232,-0.2293,-0.2278,-0.2264,-0.2237,-0.2227,-0.2202,-0.2176,-0.2149,-0.2132,-0.2105,-0.2074,-0.2065,-0.2061,-0.2061,-0.2061,-0.2058,-0.204,-0.2038,-0.206,-0.206,-0.206,0,0,-0.2411,-0.2387,-0.2374,-0.2334,-0.2314,-0.229,-0.2284,-0.2259,-0.2241,-0.2222,-0.2191,-0.2172,-0.2141,-0.2109,-0.2094,-0.2093,-0.2051,-0.2059,-0.2059,-0.2057,-0.2039,-0.2037,-0.2035,-0.2059,-0.2059,-0.2059,0,0,-0.2397,-0.2377,-0.2355,-0.2335,-0.2304,-0.2286,-0.2281,-0.2247,-0.2235,-0.2203,-0.2189,-0.2166,-0.2121,-0.2099,-0.2082,-0.2061,-0.2051,-0.2053,-0.205,-0.2033,-0.2031,-0.2029,-0.2022,-0.2019,-0.2051,-0.2051,-0.2051,0,-0.2399,-0.2364,-0.2344,-0.232,-0.2303,-0.2287,-0.2264,-0.2245,-0.2206,-0.2195,-0.2195,-0.2137,-0.2115,-0.2078,-0.2073,-0.206,-0.2052,-0.2057,-0.2033,-0.2031,-0.2029,-0.2022,-0.2019,-0.2051,-0.2051,-0.2051,-0.2051,0,-0.2368,-0.2344,-0.233,-0.2295,-0.2276,-0.2252,-0.2228,-0.2212,-0.22,-0.2182,-0.215,-0.2123,-0.2091,-0.2081,-0.2069,-0.2042,-0.2042,-0.2038,-0.2038,-0.2028,-0.202,-0.2017,-0.2052,-0.2052,-0.2051,-0.2051,0,0,-0.2361,-0.2317,-0.2312,-0.2296,-0.2261,-0.2242,-0.2217,-0.2187,-0.2173,-0.2147,-0.2125,-0.2088,-0.2084,-0.2064,-0.205,-0.2035,-0.202,-0.2032,-0.2031,-0.203,-0.1988,-0.1991,-0.1988,-0.2013,-0.2012,-0.2012,-0.1991,0,-0.2343,-0.23,-0.2282,-0.2247,-0.2224,-0.2208,-0.2187,-0.2163,-0.2146,-0.2123,-0.2103,-0.2077,-0.2074,-0.2062,-0.2046,-0.2025,-0.2011,-0.2026,-0.1992,-0.1991,-0.2,-0.1984,-0.1987,-0.1969,-0.1987,-0.1987,-0.1987,0,-0.2315,-0.2291,-0.2254,-0.2223,-0.2213,-0.2194,-0.2165,-0.2143,-0.2116,-0.2104,-0.2083,-0.207,-0.2043,-0.2045,-0.2007,-0.2018,-0.2003,-0.199,-0.1989,-0.1985,-0.1988,-0.1979,-0.1962,-0.1959,-0.1982,-0.1982,-0.1982,0,-0.2314,-0.2272,-0.2244,-0.2231,-0.2194,-0.2181,-0.2165,-0.2138,-0.2121,-0.2095,-0.2084,-0.2055,-0.2039,-0.2016,-0.1995,-0.1999,-0.1959,-0.1959,-0.1948,-0.1949,-0.194,-0.1941,-0.192,-0.1931,-0.1931,-0.1931,-0.1931,0,-0.2295,-0.2273,-0.2243,-0.2226,-0.2201,-0.218,-0.2155,-0.2138,-0.2114,-0.2093,-0.2077,-0.2057,-0.2031,-0.2007,-0.199,-0.1961,-0.1954,-0.1943,-0.1939,-0.1945,-0.1946,-0.1934,-0.1935,-0.193,-0.193,-0.1931,-0.1931,0,-0.2288,-0.2268,-0.2237,-0.2205,-0.2196,-0.2179,-0.2151,-0.2134,-0.2116,-0.2089,-0.2082,-0.2054,-0.2025,-0.2002,-0.1965,-0.1953,-0.1923,-0.1918,-0.1933,-0.193,-0.192,-0.1921,-0.1891,-0.1886,-0.1901,-0.19,-0.19,0,-0.2277,-0.226,-0.2227,-0.2212,-0.2197,-0.2173,-0.2156,-0.2135,-0.2118,-0.2085,-0.2071,-0.2042,-0.2018,-0.1973,-0.1949,-0.192,-0.1914,-0.1905,-0.1909,-0.1916,-0.1913,-0.1915,-0.1913,-0.1905,-0.1905,-0.1905,-0.1905,0,-0.226,-0.2251,-0.2228,-0.2201,-0.2182,-0.2159,-0.2136,-0.2125,-0.2099,-0.2081,-0.2052,-0.2033,-0.1996,-0.1967,-0.1936,-0.1918,-0.1907,-0.1904,-0.19,-0.1905,-0.1914,-0.1908,-0.1931,-0.1904,-0.1904,-0.1904,-0.1904,-0.1904,-0.2251,-0.2235,-0.2209,-0.2184,-0.2165,-0.2144,-0.2126,-0.2107,-0.2083,-0.2052,-0.2041,-0.2011,-0.1984,-0.1941,-0.1923,-0.19,-0.1898,-0.1892,-0.1891,-0.1889,-0.189,-0.1918,-0.1894,-0.1894,-0.1894,-0.1894,-0.1894,0,-0.2232,-0.2215,-0.2192,-0.2162,-0.2142,-0.2135,-0.2109,-0.2092,-0.2067,-0.2043,-0.202,-0.1987,-0.1959,-0.1933,-0.1904,-0.189,-0.1884,-0.1883,-0.1883,-0.1879,-0.1893,-0.1899,-0.1888,-0.1888,-0.1888,-0.1888,-0.1888,-0.1888,-0.222,-0.2193,-0.2181,-0.2145,-0.2127,-0.21,-0.2086,-0.2066,-0.2047,-0.2012,-0.1989,-0.1972,-0.1947,-0.1916,-0.189,-0.1883,-0.1873,-0.1873,-0.1864,-0.1877,-0.1878,-0.1879,-0.1885,-0.1871,-0.1871,-0.1852,-0.1852,-0.1852]}]]